Location: Centerville
(32.8776°N, 96.6203°W)
Time: 13:21:39
(UTC+00:00)

Terra - Pass Details

Date: 17 June 2021
Orbit: 701 x 703 km, 98.2° (Epoch: 31 July)

Event Time Altitude Azimuth Distance (km) Brightness Sun altitude
Exits shadow 05:20:14 25° 285° (WNW) 1,400 3.6 -31.5°
Drops below altitude 10° 05:23:16 10° 321° (NW) 2,173 5.1 -31.7°
Sets 05:25:50 0° 334° (NNW) 3,096 6.2 -31.8°
